Regional Weather Roundup
Issued by NWS

Home | Current Version | Previous Version | Text Only | Print | Product List | Glossary On
Versions: 1 2 3 4 5 6 7 8 9 10 11 12 13 14 15 16 17 18 19 20 21 22 23 24 25 26 27 28 29 30 31 32 33 34 35 36 37 38 39 40 41 42 43 44 45 46 47 48 49 50
000
ASUS46 KSTO 170615
RWRCA

NORTHERN AND CENTRAL CA REGIONAL WEATHER ROUNDUP
NATIONAL WEATHER SERVICE SACRAMENTO CA
1000 PM PST MON JAN 16 2017

NOTE: FAIR INDICATES FEW OR NO CLOUDS BELOW 12,000 FEET WITH NO
SIGNIFICANT WEATHER AND/OR OBSTRUCTIONS TO VISIBILITY.

CAZ001-003-170700-
NORTHWEST AREA

CITY           SKY/WX    TMP DP  RH WIND       PRES   REMARKS
CRESCENT CITY  PTCLDY    46  43  89 S9        30.09F
UKIAH          CLEAR     39  38  96 CALM      30.11S
$$

CAZ006-505>513-170700-
BAY AREA

CITY           SKY/WX    TMP DP  RH WIND       PRES   REMARKS
SANTA ROSA     HAZE      40  40 100 CALM      30.12F VSB 1/4
SAN RAFAEL     N/A       42  MM  MM MISG
NAPA           CLEAR     43  38  82 E5        30.13F
CONCORD        CLEAR     41  36  82 CALM      30.14S HAZE
OAKLAND CITY   N/A       49  MM  MM MISG
OAKLAND        CLEAR     46  39  76 SE3       30.13S
SAN FRAN CITY  N/A       47  MM  75 MISG
SAN FRAN ARPT  CLEAR     49  41  74 NE9       30.12S
LIVERMORE      CLEAR     38  34  85 NE5       30.12S WCI  34
HAYWARD        CLEAR     45  36  70 NE7       30.12S
REDWOOD CITY   N/A       41  MM  88 MISG
MOFFETT ARPT   CLEAR     43  36  76 CALM      30.13S
SAN JOSE ARPT  CLEAR     46  39  76 CALM      30.12S
$$
CAZ034-037-514>518-170700-
CENTRAL COAST

CITY           SKY/WX    TMP DP  RH WIND       PRES   REMARKS
WATSONVILLE    CLEAR     41  41 100 NW3       30.11F
SALINAS        CLEAR     42  39  89 CALM      30.11S
MONTEREY       CLEAR     43  41  93 E3        30.10F
SAN LUIS OBISP CLEAR     45  39  79 CALM      30.08S
SANTA MARIA    CLEAR     42  39  89 SE3       30.10R
$$
CAZ015-016-170700-
NORTHERN SACRAMENTO VALLEY

CITY           SKY/WX    TMP DP  RH WIND       PRES   REMARKS
REDDING        CLEAR     40  37  89 N3        30.13S
RED BLUFF      FOG       38  37  97 CALM      30.15S VSB 1/2
OROVILLE       CLEAR     40  36  86 E5        30.17R
$$
CAZ016>018-170700-
SOUTHERN SACRAMENTO VALLEY

CITY           SKY/WX    TMP DP  RH WIND       PRES   REMARKS
AUBURN         CLEAR     39  37  93 E5        30.11S
BEALE AFB      CLEAR     37  37 100 E3        30.14S
LINCOLN        FAIR      34  34 100 CALM      30.15S
MARYSVILLE     CLEAR     38  36  92 CALM      30.16S
SAC INTL ARPT  CLEAR     41  39  93 SE5       30.15R
MATHER AIRPORT CLEAR     32  32 100 CALM      30.15S
DOWNTOWN SAC   N/A       40  MM  MM MISG
SAC EXEC ARPT  CLEAR     39  37  92 CALM      30.16R FOG
VACAVILLE      CLEAR     36  36 100 CALM      30.15S
TRAVIS AFB     CLEAR     36  35  96 CALM      30.13S
$$
CAZ019>021-170700-
SAN JOAQUIN VALLEY

CITY           SKY/WX    TMP DP  RH WIND       PRES   REMARKS
STOCKTON       CLEAR     38  37  97 E6        30.14S FOG     WCI  33
MODESTO        CLEAR     39  35  86 E5        30.15S
MERCED         CLEAR     38  35  89 E7        30.15S WCI  33
LEMOORE        CLEAR     36  35  96 E5        30.16R FOG     WCI  32
FRESNO         CLEAR     38  35  89 NE3       30.16S FOG
HANFORD        CLEAR     35  35 100 NE3       30.16S FOG
PORTERVILLE    CLEAR     36  34  92 E6        30.16S FOG     WCI  31
BAKERSFIELD    CLEAR     39  34  82 NE5       30.14S
$$
CAZ011-012-071-170700-
NORTHERN MOUNTAINS

CITY           SKY/WX    TMP DP  RH WIND       PRES   REMARKS
YREKA          CLEAR     27  24  89 N3        30.17F
MOUNT SHASTA   CLEAR     29  24  82 CALM      30.13F HAZE
ALTURAS        CLEAR     23  20  88 CALM      30.18F
$$
CAZ011-012-071-170700-
SIERRA NEVADA MTNS

CITY           SKY/WX    TMP DP  RH WIND       PRES   REMARKS
BLUE CANYON    CLEAR     47  11  23 NE8       30.12F
TRUCKEE        FOG       18  16  93 CALM      30.23S VSB 1/2
TAHOE VLY ARPT CLEAR     21  18  88 S7        30.18F WCI  12
MAMMOTH LAKES  FAIR      19   6  57 W13       30.21S WCI   5
$$




USA.gov is the U.S. government's official web portal to all federal, state and local government web resources and services.